[Date Prev][Date Next][Thread Prev][Thread Next] - [Date Index][Thread Index][Author Index]
2 Line ISS Keps 9-14
- Subject: [sarex] 2 Line ISS Keps 9-14
- From: "Dave Larsen PhD" <doc@xxxxxxxxxxx>
- Date: Sun, 14 Sep 2003 05:23:43 -0700
ISS
1 25544U 98067A 03257.21743132 .00010976 00000-0 12735-3 0 4944
2 25544 51.6317 291.8103 0005773 246.0863 150.2896 15.62341691274912
----
Via the sarex mailing list at AMSAT.ORG courtesy of AMSAT-NA.
To unsubscribe, send "unsubscribe sarex" to Majordomo@amsat.org
AMSAT Home